User: anonymous   Login
Location: Austin
(30.3000°N, 97.7500°W)
Time: 11:04:17
(UTC-06:00)
Language:

Cosmos 858 Rocket - Orbit

View from above orbital plane
View from above orbital plane
View from above satellite
View from above satellite

Ground track
Ground track

The orbit data is extracted from the following two-line orbital elements,

1  9444U 76098B   23334.15956374  .00000625  00000-0  21327-3 0  9997
2  9444  74.0504 280.4484 0013731 204.3657 155.6849 14.38400492907723
Epoch (UTC): 30 November 2023 03:49:46
Eccentricity: 0.0013731
inclination: 74.0504°
perigee height: 754 km
apogee height: 773 km
right ascension of ascending node: 280.4484°
argument of perigee: 204.3657°
revolutions per day: 14.38400492
mean anomaly at epoch: 155.6849°
orbit number at epoch: 90772

The dashed part of the orbit path shows where the satellite is in the earth's shadow,  

DLR